Location: Newark
(53.3333°N, 83.7500°E)
Time: 01:32:39
(UTC+00:00)

Vanguard 1 Rocket - Visible Passes

Search period start: 13 November 2019 00:00
Search period end: 23 November 2019 00:00
Orbit: 651 x 4225 km, 34.3° (Epoch: 11 November)

Date Brightness Start Highest point End Pass type
(mag) Time Alt. Az. Time Alt. Az. Time Alt. Az.
14 Nov 9.7 00:48:44 10° SSW 00:52:02 15° SSE 00:56:14 10° SE visible
14 Nov 9.7 23:40:41 10° S 23:41:35 10° SSE 23:42:32 10° SSE visible
16 Nov 9.7 00:51:47 10° SSW 00:54:37 14° S 00:58:03 10° SE visible
16 Nov 9.6 23:43:18 10° S 23:44:06 10° SSE 23:44:57 10° SSE visible
18 Nov 9.7 00:55:14 10° SSW 00:57:14 12° S 00:59:30 10° SSE visible
